Weather Roundup
Issued by NWS Chicago, IL

Home | Current Version | Previous Version | Graphics & Text | Print | Product List | Glossary On
Versions: 1 2 3 4 5 6 7 8 9 10 11 12 13 14 15 16 17 18 19 20 21 22 23 24 25 26 27 28 29 30 31 32 33 34 35 36 37 38 39 40 41 42 43 44 45 46 47 48 49 50
000
NZUS59 KLOT 190805
HRRLOT

CHICAGO AREA WEATHER ROUNDUP
NATIONAL WEATHER SERVICE CHICAGO/ROMEOVILLE IL
300 AM CDT THU OCT 19 2017

NOTE: "FAIR" INDICATES FEW OR NO CLOUDS BELOW 12,000 FEET WITH NO
SIGNIFICANT WEATHER AND/OR OBSTRUCTIONS TO VISIBILITY.

* THESE STATIONS ARE NOT UNDER NWS QUALITY CONTROL. THEY ALSO MAY NOT
  REPORT WEATHER SUCH AS PRECIPITATION OR FOG.

ILZ005-006-012>014-019>023-190900-
NORTHEAST ILLINOIS

CITY           SKY/WX    TMP DP  RH WIND       PRES   REMARKS
OHARE          CLEAR     57  45  64 SW10      30.03S
MIDWAY         PTCLDY    57  47  69 SW10      30.04S
AURORA         CLEAR     52  46  80 SW7       30.06R
LANSING*       CLEAR     50  47  88 SW6       30.07R
JOLIET*        CLEAR     55  48  78 SW3       30.06S
WAUKEGAN       CLEAR     56  45  66 SW8       30.01R
DUPAGE AIRPORT CLEAR     54  47  77 SW9       30.04R
WHEELING       PTCLDY    57  47  69 SW6       30.04R
KANKAKEE*      CLEAR     53  46  76 SW8       30.08F
MORRIS*        CLEAR     53  47  79 SW6       30.05S
NORTHERLY ISL    N/A     59  45  59 SW13        N/A
$$

WIZ051-052-058>065-066-070>072-190900-
SOUTHEAST WISCONSIN

CITY           SKY/WX    TMP DP  RH WIND       PRES   REMARKS
MILWAUKEE      CLOUDY    60  45  57 W9        30.00R
KENOSHA*       CLEAR     57  44  62 W10       30.01R
RACINE*        CLEAR     58  45  62 W9        30.02R
WEST BEND      CLOUDY    55  41  58 W10G17    30.00R
$$

INZ001>003-010>013-019-020-190900-
NORTHWEST INDIANA

CITY           SKY/WX    TMP DP  RH WIND       PRES   REMARKS
GARY*          CLEAR     55  46  69 S3        30.07R
MICHIGAN CITY* NOT AVBL
RENSSELAER*    NOT AVBL
VALPARAISO     CLEAR     52  46  80 CALM      30.08S
$$

LMZ740>746-190900-
SOUTHERN LAKE MICHIGAN

STATION/POSITION TIME  SKY/WX   TEMP WIND        PRES    VSBY
                                AIR  DIR/SP/G
                 (UTC)          (F)  (DEG/KT/KT) (MB)    (MI)
HARRISON CRIB    0740            63  230/ 21/ 27   N/A
BURNHAM HARBOR   0800            59  260/  7/ 12   N/A
CALUMET HARBOR   0730            58  210/  7/ 11 1016.8R
BURNS HARBOR     0740            57  200/ 12/ 16 1018.3R
MICHIGAN CITY    0740            57  190/ 15/ 17   N/A
$$

ABBREVIATIONS USED IN REMARKS
   TC - TEMPERATURE IN CELSIUS
  WCI - WIND CHILL INDEX
   HX - HEAT INDEX
  VSB - VISIBILITY
$$




USA.gov is the U.S. government's official web portal to all federal, state and local government web resources and services.